Latham, Kansas
Current Conditions -  °F | °C
As of 7:15 AM on Tuesday 21 Oct 2014 (Local Time) from KEQA Reporting Station
Clear Clear  
Wind Chill: 50°   Ceiling: Unl
Heat Index: 50°   Visibility: 10mi
Dew Point: 46°   Wind: 6mph
Humidity: 87%   Direction: 110°ESE
Pressure: 30.09"   Gusts: NA
Location:  37.54°N, 96.64°W
Report Text: KEQA 211215Z AUTO 11005KT 10SM CLR 10/08 A3009 RMK AO2
Loading
Personal Weather Stations






























Interactive Weather Map
Tropical Storm Tracking
New forecast layout! Learn more

10-Day Weather Forecast

Advertisements
Track Severe Weather on mobile